Location: Newark
(58.8333°N, 23.5833°E)
Time: 14:22:29
(UTC+00:00)

A-11 Canister half - Pass Details

Date: 20 November 2019
Orbit: 1515 x 1685 km, 47.2° (Epoch: 06 December)

Event Time Altitude Azimuth Distance (km) Brightness Sun altitude
Rises 21:50:57 0° 278° (W) 4,945 11.8 -50.8°
Enters shadow 21:53:26 - 272° (W) 4,291 11.4 -50.8°
Reaches altitude 10° 21:54:50 10° 267° (W) 3,952 - -50.8°
Maximum altitude 22:02:28 25° 217° (SW) 2,902 - -50.9°
Drops below altitude 10° 22:10:00 10° 168° (SSE) 3,887 - -50.9°
Sets 22:13:48 0° 156° (SSE) 4,847 - -50.9°
